QPF
0.05 0.05 0.04 0.02 0.01 0.01 0.00 0.00 0.00 0.00 0.01 0.01 0.01 0.02 0.02 0.03 0.04 0.07 0.08 0.06 0.05 0.07 0.07 0.11 0.11 0.09 0.10 0.12 0.09 0.07 0.11 0.15 0.14 0.14 0.14 0.12 0.10 0.10 0.11 0.13 0.14 0.13 0.11 0.10
0.03 0.03 0.02 0.01 0.00 0.00 0.00 0.01 0.01 0.01 0.01 0.01 0.01 0.02 0.02 0.03 0.05 0.08 0.08 0.09 0.08 0.08 0.07 0.09 0.12 0.12 0.12 0.12 0.09 0.08 0.10 0.13 0.13 0.14 0.14 0.13 0.11 0.10 0.10 0.10 0.12 0.13 0.12 0.10
0.01 0.01 0.01 0.01 0.00 0.00 0.00 0.01 0.01 0.02 0.02 0.02 0.02 0.02 0.02 0.03 0.04 0.06 0.09 0.09 0.08 0.07 0.07 0.07 0.09 0.11 0.12 0.11 0.09 0.09 0.12 0.13 0.11 0.10 0.10 0.11 0.11 0.10 0.09 0.08 0.08 0.10 0.13 0.12
0.01 0.00 0.00 0.00 0.00 0.00 0.01 0.01 0.01 0.02 0.02 0.02 0.02 0.02 0.02 0.02 0.03 0.05 0.07 0.08 0.07 0.06 0.06 0.07 0.08 0.09 0.12 0.10 0.10 0.11 0.11 0.11 0.10 0.08 0.09 0.10 0.11 0.10 0.08 0.07 0.06 0.06 0.09 0.12
0.01 0.01 0.00 0.00 0.00 0.01 0.01 0.01 0.02 0.01 0.01 0.01 0.01 0.02 0.03 0.02 0.02 0.03 0.05 0.07 0.08 0.07 0.07 0.08 0.09 0.10 0.11 0.10 0.10 0.10 0.09 0.08 0.09 0.08 0.08 0.10 0.10 0.09 0.08 0.08 0.07 0.05 0.07 0.11
0.01 0.00 0.01 0.00 0.01 0.01 0.01 0.01 0.01 0.01 0.01 0.02 0.01 0.01 0.02 0.02 0.03 0.03 0.04 0.05 0.08 0.08 0.07 0.07 0.11 0.12 0.11 0.10 0.10 0.09 0.10 0.11 0.12 0.09 0.08 0.10 0.10 0.08 0.07 0.08 0.08 0.06 0.06 0.09
0.02 0.01 0.01 0.01 0.01 0.01 0.01 0.02 0.03 0.02 0.02 0.02 0.01 0.01 0.01 0.01 0.03 0.04 0.04 0.06 0.09 0.10 0.10 0.08 0.09 0.09 0.10 0.12 0.12 0.10 0.10 0.10 0.13 0.13 0.11 0.10 0.12 0.09 0.09 0.12 0.15 0.11 0.08 0.08
0.02 0.01 0.01 0.01 0.01 0.02 0.01 0.01 0.01 0.01 0.01 0.01 0.01 0.01 0.01 0.01 0.02 0.03 0.04 0.06 0.08 0.11 0.13 0.11 0.09 0.10 0.12 0.12 0.14 0.14 0.13 0.11 0.13 0.17 0.16 0.14 0.15 0.15 0.12 0.13 0.16 0.13 0.10 0.07
0.01 0.01 0.01 0.01 0.01 0.01 0.02 0.02 0.01 0.01 0.01 0.01 0.01 0.01 0.01 0.01 0.02 0.03 0.03 0.05 0.09 0.11 0.11 0.12 0.12 0.13 0.13 0.13 0.15 0.17 0.15 0.15 0.18 0.21 0.18 0.19 0.18 0.17 0.12 0.10 0.12 0.12 0.10 0.08
0.01 0.01 0.01 0.01 0.01 0.01 0.01 0.01 0.01 0.02 0.01 0.01 0.01 0.01 0.02 0.02 0.03 0.04 0.05 0.06 0.09 0.11 0.12 0.14 0.16 0.15 0.12 0.13 0.16 0.17 0.15 0.17 0.19 0.21 0.17 0.19 0.20 0.18 0.14 0.12 0.13 0.13 0.10 0.07
0.01 0.01 0.01 0.01 0.01 0.01 0.01 0.01 0.01 0.01 0.01 0.02 0.01 0.01 0.02 0.03 0.04 0.05 0.06 0.07 0.09 0.11 0.14 0.18 0.20 0.18 0.15 0.16 0.17 0.18 0.15 0.15 0.18 0.19 0.16 0.17 0.18 0.17 0.14 0.13 0.11 0.12 0.11 0.08
0.01 0.01 0.01 0.01 0.00 0.00 0.00 0.00 0.01 0.02 0.01 0.01 0.02 0.01 0.02 0.03 0.04 0.04 0.06 0.08 0.09 0.11 0.12 0.13 0.17 0.17 0.16 0.18 0.18 0.18 0.14 0.13 0.16 0.16 0.15 0.16 0.17 0.17 0.17 0.16 0.13 0.11 0.11 0.10
0.01 0.01 0.01 0.01 0.01 0.00 0.00 0.00 0.01 0.01 0.02 0.01 0.01 0.01 0.02 0.02 0.03 0.04 0.05 0.08 0.09 0.09 0.10 0.10 0.12 0.13 0.14 0.15 0.16 0.16 0.15 0.14 0.15 0.16 0.15 0.18 0.18 0.17 0.17 0.15 0.14 0.12 0.11 0.10
0.01 0.00 0.00 0.01 0.00 0.00 0.00 0.00 0.00 0.01 0.02 0.01 0.01 0.01 0.01 0.02 0.03 0.03 0.04 0.06 0.06 0.07 0.07 0.07 0.08 0.10 0.11 0.12 0.13 0.13 0.14 0.14 0.15 0.16 0.14 0.15 0.18 0.18 0.18 0.15 0.14 0.12 0.11 0.10
0.00 0.00 0.00 0.00 0.00 0.00 0.00 0.00 0.00 0.00 0.00 0.01 0.00 0.00 0.01 0.02 0.02 0.02 0.02 0.03 0.03 0.04 0.04 0.05 0.06 0.07 0.07 0.08 0.09 0.10 0.11 0.13 0.13 0.12 0.11 0.12 0.14 0.14 0.16 0.13 0.11 0.11 0.10 0.08
0.00 0.00 0.00 0.00 0.00 0.00 0.00 0.00 0.00 0.00 0.00 0.00 0.00 0.00 0.01 0.01 0.02 0.02 0.01 0.02 0.02 0.02 0.03 0.03 0.05 0.05 0.05 0.05 0.06 0.06 0.08 0.09 0.09 0.08 0.10 0.11 0.11 0.11 0.14 0.14 0.10 0.10 0.10 0.08
0.00 0.00 0.00 0.00 0.00 0.00 0.00 0.00 0.00 0.00 0.00 0.00 0.00 0.00 0.01 0.01 0.02 0.02 0.02 0.01 0.02 0.01 0.01 0.01 0.02 0.02 0.02 0.03 0.04 0.05 0.06 0.07 0.08 0.08 0.08 0.08 0.09 0.10 0.13 0.14 0.11 0.09 0.09 0.09
0.00 0.00 0.00 0.00 0.00 0.00 0.00 0.00 0.00 0.00 0.00 0.00 0.00 0.00 0.00 0.01 0.01 0.02 0.02 0.01 0.01 0.01 0.01 0.01 0.01 0.01 0.01 0.01 0.01 0.02 0.02 0.03 0.04 0.05 0.05 0.05 0.05 0.06 0.07 0.07 0.09 0.08 0.08 0.09
0.00 0.00 0.00 0.00 0.00 0.00 0.00 0.00 0.00 0.00 0.00 0.00 0.00 0.00 0.00 0.00 0.00 0.01 0.01 0.01 0.01 0.01 0.01 0.01 0.01 0.01 0.01 0.01 0.00 0.00 0.00 0.00 0.01 0.01 0.02 0.02 0.03 0.04 0.04 0.04 0.06 0.07 0.07 0.09
0.00 0.00 0.00 0.00 0.00 0.00 0.00 0.00 0.00 0.00 0.00 0.00 0.00 0.00 0.00 0.00 0.00 0.00 0.00 0.01 0.01 0.01 0.01 0.01 0.00 0.00 0.01 0.01 0.00 0.00 0.00 0.00 0.00 0.01 0.01 0.01 0.01 0.02 0.03 0.03 0.04 0.04 0.07 0.09
0.00 0.00 0.00 0.00 0.00 0.00 0.00 0.00 0.00 0.00 0.00 0.00 0.00 0.00 0.00 0.00 0.00 0.00 0.00 0.01 0.02 0.02 0.01 0.01 0.01 0.00 0.00 0.00 0.00 0.00 0.00 0.00 0.00 0.00 0.00 0.00 0.01 0.01 0.02 0.03 0.03 0.03 0.05 0.06
0.00 0.00 0.00 0.00 0.00 0.00 0.00 0.00 0.00 0.00 0.00 0.00 0.00 0.00 0.00 0.00 0.00 0.00 0.00 0.00 0.01 0.02 0.01 0.01 0.01 0.00 0.00 0.00 0.00 0.00 0.00 0.00 0.00 0.00 0.00 0.00 0.00 0.01 0.02 0.03 0.03 0.03 0.04 0.05
0.00 0.00 0.00 0.00 0.00 0.00 0.00 0.00 0.00 0.00 0.00 0.00 0.00 0.00 0.00 0.00 0.00 0.00 0.00 0.00 0.00 0.01 0.01 0.01 0.01 0.01 0.00 0.00 0.00 0.00 0.00 0.00 0.00 0.00 0.00 0.00 0.00 0.01 0.01 0.02 0.03 0.03 0.04 0.05
0.00 0.00 0.00 0.00 0.00 0.00 0.00 0.00 0.00 0.00 0.00 0.00 0.00 0.00 0.00 0.00 0.00 0.00 0.00 0.00 0.00 0.00 0.00 0.01 0.01 0.01 0.01 0.00 0.00 0.00 0.00 0.00 0.00 0.00 0.00 0.00 0.00 0.00 0.01 0.01 0.02 0.03 0.04 0.05
0.00 0.00 0.00 0.00 0.00 0.00 0.00 0.00 0.00 0.00 0.00 0.00 0.00 0.00 0.00 0.00 0.00 0.00 0.00 0.00 0.00 0.00 0.00 0.00 0.00 0.00 0.00 0.00 0.00 0.00 0.00 0.00 0.00 0.00 0.00 0.00 0.00 0.00 0.01 0.01 0.02 0.03 0.04 0.05
0.00 0.00 0.00 0.00 0.00 0.00 0.00 0.00 0.00 0.00 0.00 0.00 0.00 0.00 0.00 0.00 0.00 0.00 0.00 0.00 0.00 0.00 0.00 0.00 0.00 0.00 0.00 0.00 0.00 0.00 0.00 0.00 0.00 0.00 0.00 0.00 0.00 0.00 0.01 0.01 0.01 0.02 0.03 0.04
MSLP
1021.54 1021.78 1022.05 1022.32 1022.56 1022.72 1022.78 1022.72 1022.54 1022.27 1021.93 1021.55 1021.16 1020.80 1020.48 1020.20 1019.96 1019.76 1019.58 1019.40 1019.22 1019.03 1018.81 1018.54 1018.22 1017.82 1017.31 1016.68 1015.91 1015.00 1013.98 1012.90 1011.81 1010.77 1009.87 1009.14 1008.63 1008.34 1008.25 1008.29 1008.42 1008.56 1008.68 1008.73
1021.82 1022.10 1022.41 1022.70 1022.93 1023.06 1023.07 1022.94 1022.68 1022.32 1021.91 1021.47 1021.05 1020.67 1020.36 1020.12 1019.94 1019.79 1019.66 1019.54 1019.39 1019.22 1019.00 1018.74 1018.41 1017.99 1017.46 1016.81 1016.01 1015.07 1014.01 1012.86 1011.68 1010.55 1009.54 1008.71 1008.10 1007.72 1007.57 1007.59 1007.72 1007.89 1008.05 1008.16
1022.04 1022.37 1022.71 1023.01 1023.24 1023.34 1023.29 1023.09 1022.76 1022.33 1021.84 1021.35 1020.91 1020.53 1020.25 1020.06 1019.95 1019.87 1019.81 1019.74 1019.63 1019.48 1019.25 1018.96 1018.59 1018.13 1017.57 1016.88 1016.04 1015.07 1013.97 1012.78 1011.56 1010.36 1009.26 1008.33 1007.62 1007.15 1006.92 1006.88 1006.99 1007.16 1007.35 1007.51
1022.22 1022.56 1022.91 1023.22 1023.42 1023.49 1023.40 1023.14 1022.73 1022.23 1021.69 1021.17 1020.71 1020.35 1020.11 1019.98 1019.95 1019.96 1019.98 1019.98 1019.91 1019.76 1019.53 1019.20 1018.77 1018.25 1017.63 1016.88 1016.01 1015.02 1013.90 1012.70 1011.45 1010.22 1009.06 1008.06 1007.25 1006.68 1006.35 1006.22 1006.26 1006.40 1006.58 1006.76
1022.34 1022.67 1023.01 1023.29 1023.47 1023.50 1023.36 1023.04 1022.59 1022.04 1021.45 1020.90 1020.44 1020.10 1019.91 1019.86 1019.91 1020.01 1020.13 1020.19 1020.18 1020.05 1019.80 1019.43 1018.95 1018.36 1017.66 1016.87 1015.96 1014.96 1013.84 1012.65 1011.41 1010.18 1009.00 1007.94 1007.05 1006.37 1005.91 1005.66 1005.59 1005.64 1005.77 1005.93
1022.40 1022.70 1023.00 1023.24 1023.37 1023.36 1023.18 1022.83 1022.33 1021.75 1021.15 1020.59 1020.13 1019.82 1019.67 1019.69 1019.82 1020.01 1020.21 1020.36 1020.39 1020.30 1020.04 1019.64 1019.11 1018.46 1017.71 1016.87 1015.94 1014.93 1013.85 1012.70 1011.50 1010.29 1009.12 1008.03 1007.07 1006.28 1005.68 1005.28 1005.05 1004.96 1004.98 1005.06
1022.42 1022.65 1022.89 1023.07 1023.16 1023.11 1022.90 1022.53 1022.02 1021.43 1020.82 1020.26 1019.82 1019.53 1019.42 1019.48 1019.68 1019.95 1020.22 1020.43 1020.53 1020.47 1020.24 1019.82 1019.26 1018.57 1017.78 1016.92 1015.99 1015.00 1013.96 1012.87 1011.75 1010.60 1009.46 1008.36 1007.35 1006.45 1005.71 1005.12 1004.70 1004.43 1004.27 1004.21
1022.41 1022.56 1022.72 1022.84 1022.88 1022.80 1022.57 1022.20 1021.70 1021.13 1020.53 1019.99 1019.56 1019.28 1019.18 1019.27 1019.50 1019.82 1020.15 1020.42 1020.57 1020.56 1020.36 1019.96 1019.40 1018.70 1017.90 1017.04 1016.13 1015.18 1014.21 1013.20 1012.16 1011.09 1010.01 1008.93 1007.88 1006.90 1006.01 1005.24 1004.61 1004.11 1003.73 1003.48
1022.37 1022.43 1022.51 1022.56 1022.56 1022.46 1022.24 1021.89 1021.43 1020.89 1020.32 1019.80 1019.37 1019.09 1018.99 1019.08 1019.31 1019.64 1020.00 1020.32 1020.52 1020.56 1020.41 1020.06 1019.52 1018.85 1018.08 1017.24 1016.37 1015.48 1014.58 1013.67 1012.72 1011.75 1010.73 1009.69 1008.63 1007.58 1006.57 1005.64 1004.79 1004.05 1003.44 1002.95
1022.32 1022.30 1022.30 1022.29 1022.25 1022.14 1021.94 1021.63 1021.21 1020.72 1020.20 1019.69 1019.27 1018.98 1018.85 1018.91 1019.11 1019.43 1019.80 1020.14 1020.39 1020.49 1020.40 1020.12 1019.65 1019.03 1018.31 1017.52 1016.70 1015.88 1015.06 1014.23 1013.38 1012.50 1011.56 1010.57 1009.52 1008.44 1007.34 1006.26 1005.22 1004.27 1003.41 1002.68
1022.26 1022.16 1022.09 1022.04 1021.96 1021.85 1021.67 1021.40 1021.04 1020.60 1020.12 1019.64 1019.22 1018.91 1018.74 1018.75 1018.91 1019.20 1019.56 1019.92 1020.21 1020.37 1020.36 1020.16 1019.78 1019.24 1018.59 1017.87 1017.11 1016.35 1015.59 1014.84 1014.07 1013.26 1012.40 1011.47 1010.45 1009.36 1008.21 1007.04 1005.87 1004.73 1003.68 1002.72
1022.20 1022.04 1021.91 1021.80 1021.69 1021.57 1021.40 1021.17 1020.85 1020.46 1020.02 1019.56 1019.14 1018.81 1018.61 1018.57 1018.69 1018.95 1019.30 1019.68 1020.01 1020.25 1020.33 1020.22 1019.94 1019.49 1018.92 1018.26 1017.56 1016.84 1016.13 1015.43 1014.71 1013.97 1013.17 1012.29 1011.32 1010.25 1009.10 1007.88 1006.63 1005.38 1004.17 1003.05
1022.16 1021.94 1021.75 1021.58 1021.43 1021.28 1021.11 1020.88 1020.59 1020.23 1019.82 1019.38 1018.97 1018.63 1018.41 1018.34 1018.44 1018.68 1019.04 1019.44 1019.83 1020.14 1020.32 1020.32 1020.14 1019.79 1019.29 1018.70 1018.04 1017.35 1016.66 1015.97 1015.28 1014.57 1013.81 1012.98 1012.06 1011.03 1009.90 1008.69 1007.41 1006.11 1004.83 1003.59
1022.12 1021.85 1021.60 1021.37 1021.16 1020.96 1020.74 1020.50 1020.20 1019.85 1019.45 1019.03 1018.63 1018.31 1018.09 1018.03 1018.14 1018.40 1018.78 1019.23 1019.69 1020.09 1020.36 1020.47 1020.39 1020.12 1019.70 1019.15 1018.52 1017.84 1017.14 1016.45 1015.76 1015.05 1014.31 1013.51 1012.63 1011.65 1010.57 1009.40 1008.15 1006.86 1005.55 1004.28
1022.10 1021.79 1021.47 1021.16 1020.86 1020.57 1020.29 1019.98 1019.65 1019.28 1018.88 1018.48 1018.11 1017.81 1017.64 1017.62 1017.78 1018.09 1018.53 1019.06 1019.60 1020.08 1020.45 1020.66 1020.67 1020.48 1020.11 1019.60 1018.98 1018.30 1017.58 1016.86 1016.14 1015.42 1014.68 1013.89 1013.03 1012.10 1011.07 1009.96 1008.77 1007.53 1006.27 1005.01
1022.10 1021.73 1021.34 1020.93 1020.53 1020.13 1019.74 1019.35 1018.95 1018.53 1018.12 1017.74 1017.41 1017.17 1017.07 1017.14 1017.37 1017.78 1018.31 1018.92 1019.55 1020.12 1020.58 1020.87 1020.95 1020.82 1020.50 1020.02 1019.40 1018.71 1017.97 1017.22 1016.46 1015.71 1014.94 1014.15 1013.31 1012.41 1011.43 1010.38 1009.27 1008.10 1006.91 1005.72
1022.08 1021.66 1021.19 1020.68 1020.17 1019.65 1019.13 1018.63 1018.14 1017.67 1017.24 1016.87 1016.60 1016.44 1016.44 1016.61 1016.96 1017.48 1018.11 1018.82 1019.53 1020.19 1020.71 1021.06 1021.20 1021.11 1020.82 1020.36 1019.75 1019.05 1018.29 1017.51 1016.73 1015.94 1015.16 1014.35 1013.51 1012.63 1011.69 1010.69 1009.64 1008.55 1007.44 1006.33
1022.01 1021.54 1021.00 1020.40 1019.77 1019.12 1018.48 1017.86 1017.29 1016.77 1016.32 1015.98 1015.76 1015.70 1015.81 1016.11 1016.59 1017.21 1017.95 1018.75 1019.53 1020.24 1020.81 1021.19 1021.35 1021.29 1021.03 1020.58 1019.99 1019.29 1018.54 1017.75 1016.95 1016.15 1015.35 1014.53 1013.69 1012.82 1011.90 1010.93 1009.93 1008.90 1007.86 1006.83
1021.85 1021.34 1020.73 1020.05 1019.32 1018.57 1017.83 1017.12 1016.47 1015.91 1015.46 1015.16 1015.01 1015.05 1015.28 1015.70 1016.30 1017.03 1017.85 1018.71 1019.53 1020.26 1020.84 1021.22 1021.39 1021.33 1021.08 1020.65 1020.08 1019.41 1018.68 1017.92 1017.13 1016.35 1015.55 1014.73 1013.89 1013.02 1012.10 1011.16 1010.18 1009.19 1008.20 1007.22
1021.56 1021.01 1020.36 1019.62 1018.83 1018.00 1017.20 1016.43 1015.74 1015.17 1014.75 1014.49 1014.43 1014.56 1014.90 1015.43 1016.12 1016.93 1017.81 1018.69 1019.52 1020.24 1020.79 1021.14 1021.29 1021.23 1020.98 1020.57 1020.03 1019.41 1018.72 1018.01 1017.27 1016.52 1015.75 1014.95 1014.12 1013.26 1012.35 1011.41 1010.44 1009.46 1008.49 1007.55
1021.12 1020.54 1019.85 1019.09 1018.27 1017.43 1016.60 1015.83 1015.15 1014.61 1014.23 1014.04 1014.06 1014.28 1014.72 1015.33 1016.09 1016.94 1017.84 1018.71 1019.51 1020.18 1020.67 1020.98 1021.08 1021.00 1020.75 1020.35 1019.86 1019.29 1018.67 1018.02 1017.36 1016.67 1015.95 1015.19 1014.39 1013.54 1012.64 1011.71 1010.74 1009.76 1008.79 1007.85
1020.53 1019.92 1019.22 1018.46 1017.66 1016.84 1016.05 1015.33 1014.71 1014.23 1013.92 1013.81 1013.91 1014.22 1014.72 1015.40 1016.19 1017.05 1017.93 1018.76 1019.50 1020.09 1020.52 1020.76 1020.81 1020.69 1020.44 1020.06 1019.61 1019.10 1018.55 1017.98 1017.40 1016.78 1016.13 1015.43 1014.67 1013.86 1012.98 1012.05 1011.09 1010.10 1009.12 1008.15
1019.82 1019.17 1018.48 1017.75 1017.00 1016.25 1015.55 1014.92 1014.39 1014.01 1013.80 1013.79 1013.97 1014.34 1014.89 1015.59 1016.39 1017.23 1018.07 1018.84 1019.50 1020.02 1020.36 1020.53 1020.53 1020.39 1020.12 1019.76 1019.35 1018.89 1018.41 1017.92 1017.41 1016.87 1016.28 1015.65 1014.95 1014.17 1013.33 1012.42 1011.47 1010.48 1009.47 1008.47
1019.03 1018.35 1017.67 1016.98 1016.32 1015.68 1015.09 1014.59 1014.19 1013.93 1013.83 1013.90 1014.15 1014.58 1015.16 1015.86 1016.64 1017.44 1018.22 1018.93 1019.52 1019.96 1020.23 1020.35 1020.31 1020.14 1019.87 1019.53 1019.14 1018.73 1018.30 1017.87 1017.42 1016.94 1016.41 1015.84 1015.18 1014.46 1013.65 1012.78 1011.84 1010.86 1009.84 1008.80
1018.20 1017.50 1016.84 1016.22 1015.65 1015.14 1014.69 1014.33 1014.07 1013.93 1013.94 1014.09 1014.40 1014.86 1015.45 1016.13 1016.88 1017.64 1018.36 1019.00 1019.53 1019.92 1020.15 1020.23 1020.17 1019.99 1019.73 1019.40 1019.04 1018.66 1018.27 1017.86 1017.45 1017.00 1016.52 1015.98 1015.37 1014.69 1013.93 1013.09 1012.18 1011.21 1010.19 1009.12
1017.41 1016.68 1016.05 1015.50 1015.03 1014.65 1014.34 1014.12 1013.99 1013.97 1014.06 1014.28 1014.63 1015.10 1015.68 1016.34 1017.05 1017.76 1018.43 1019.03 1019.52 1019.88 1020.10 1020.17 1020.12 1019.96 1019.71 1019.41 1019.06 1018.70 1018.32 1017.92 1017.52 1017.08 1016.61 1016.08 1015.50 1014.85 1014.12 1013.32 1012.45 1011.51 1010.50 1009.42
Thickness
5522 5527 5531 5533 5533 5534 5535 5537 5542 5547 5548 5548 5555 5559 5562 5564 5563 5564 5564 5564 5562 5562 5563 5565 5567 5571 5575 5578 5581 5583 5585 5590 5594 5599 5605 5611 5617 5622 5627 5633 5639 5643 5647 5649
5522 5524 5525 5525 5525 5526 5529 5531 5540 5544 5543 5543 5550 5555 5559 5559 5557 5556 5556 5555 5554 5555 5556 5558 5559 5562 5564 5567 5570 5572 5575 5579 5584 5589 5596 5601 5607 5612 5617 5623 5628 5633 5637 5640
5523 5523 5521 5521 5524 5526 5529 5532 5537 5537 5540 5543 5544 5557 5558 5555 5553 5551 5549 5547 5546 5546 5547 5549 5552 5553 5554 5556 5559 5562 5565 5569 5574 5580 5585 5590 5596 5601 5607 5613 5617 5623 5627 5631
5518 5518 5518 5521 5524 5525 5531 5533 5531 5532 5533 5541 5539 5549 5556 5550 5548 5546 5543 5542 5540 5539 5540 5541 5543 5543 5544 5545 5548 5551 5555 5559 5564 5570 5577 5582 5587 5593 5599 5604 5608 5612 5617 5621
5517 5516 5518 5520 5523 5523 5529 5529 5529 5530 5529 5530 5538 5538 5554 5546 5542 5539 5538 5536 5533 5532 5533 5534 5534 5535 5536 5538 5540 5543 5546 5550 5555 5560 5567 5573 5578 5584 5589 5594 5598 5602 5607 5611
5513 5513 5515 5519 5521 5521 5523 5526 5528 5527 5528 5534 5537 5538 5550 5544 5535 5532 5532 5529 5527 5526 5527 5528 5528 5529 5530 5531 5532 5535 5538 5542 5547 5551 5557 5564 5569 5574 5580 5586 5590 5593 5597 5601
5514 5515 5515 5516 5520 5522 5523 5526 5535 5539 5541 5546 5534 5535 5544 5539 5531 5527 5524 5523 5522 5521 5522 5523 5522 5522 5523 5524 5526 5529 5533 5536 5540 5544 5549 5555 5559 5565 5572 5578 5582 5585 5588 5591
5513 5519 5517 5517 5519 5520 5521 5523 5530 5539 5546 5547 5536 5540 5544 5534 5528 5524 5521 5519 5517 5516 5516 5516 5516 5516 5516 5517 5520 5524 5527 5530 5533 5537 5541 5547 5552 5557 5564 5569 5573 5576 5579 5582
5516 5518 5515 5515 5516 5518 5520 5523 5520 5522 5523 5531 5545 5541 5540 5531 5526 5522 5519 5517 5515 5513 5512 5511 5511 5511 5510 5511 5514 5517 5521 5524 5527 5530 5534 5539 5544 5550 5557 5561 5564 5567 5570 5573
5508 5510 5516 5515 5516 5515 5518 5520 5519 5523 5530 5541 5547 5545 5542 5531 5524 5520 5517 5514 5512 5509 5509 5508 5508 5507 5507 5507 5509 5512 5516 5518 5520 5524 5527 5532 5537 5544 5550 5554 5557 5560 5564 5566
5507 5510 5516 5518 5520 5522 5518 5517 5519 5523 5524 5534 5543 5549 5538 5530 5524 5519 5515 5512 5509 5506 5505 5505 5505 5504 5504 5504 5506 5508 5511 5514 5516 5519 5522 5527 5533 5539 5545 5548 5551 5553 5557 5559
5507 5513 5517 5519 5518 5517 5520 5522 5521 5525 5524 5522 5532 5542 5534 5528 5523 5518 5514 5511 5507 5504 5503 5503 5502 5502 5501 5501 5503 5505 5508 5510 5512 5515 5519 5523 5528 5534 5539 5541 5544 5547 5549 5552
5509 5513 5522 5529 5523 5517 5518 5520 5518 5517 5518 5524 5532 5543 5532 5526 5522 5518 5515 5511 5507 5505 5504 5503 5502 5500 5499 5498 5500 5503 5506 5508 5509 5512 5516 5519 5523 5529 5533 5535 5537 5540 5542 5544
5512 5514 5520 5532 5534 5526 5523 5521 5517 5516 5523 5531 5533 5539 5536 5529 5524 5521 5516 5511 5508 5506 5504 5502 5501 5499 5497 5496 5498 5500 5502 5504 5507 5509 5513 5515 5519 5522 5524 5526 5529 5531 5534 5536
5512 5516 5516 5519 5522 5521 5524 5525 5522 5519 5526 5529 5537 5534 5536 5531 5525 5521 5517 5511 5508 5506 5503 5500 5499 5498 5496 5495 5496 5497 5499 5501 5503 5506 5508 5510 5512 5515 5517 5519 5521 5523 5525 5527
5509 5514 5517 5521 5523 5523 5523 5528 5527 5524 5524 5527 5530 5532 5537 5531 5525 5521 5518 5513 5509 5506 5502 5499 5496 5495 5494 5493 5493 5495 5496 5498 5500 5502 5503 5504 5506 5508 5509 5510 5512 5514 5516 5517
5507 5512 5519 5531 5527 5527 5540 5539 5533 5531 5530 5530 5533 5539 5534 5528 5526 5523 5518 5513 5509 5505 5500 5497 5495 5493 5492 5491 5491 5492 5492 5494 5496 5496 5497 5499 5500 5501 5501 5502 5504 5505 5506 5507
5504 5510 5515 5523 5530 5535 5548 5535 5534 5532 5534 5532 5533 5536 5533 5530 5526 5523 5519 5514 5510 5505 5500 5496 5494 5491 5490 5489 5488 5488 5489 5490 5491 5492 5492 5493 5494 5494 5495 5495 5495 5496 5496 5497
5499 5506 5512 5517 5529 5541 5545 5534 5530 5530 5536 5536 5533 5534 5530 5523 5521 5523 5517 5512 5508 5503 5498 5494 5491 5489 5487 5486 5485 5485 5485 5486 5486 5486 5486 5486 5487 5488 5488 5487 5487 5487 5487 5488
5492 5498 5507 5512 5519 5536 5546 5532 5526 5528 5538 5537 5531 5530 5526 5520 5529 5531 5517 5508 5504 5499 5494 5491 5488 5486 5485 5483 5481 5481 5482 5482 5481 5480 5480 5480 5480 5480 5479 5478 5478 5478 5478 5479
5498 5499 5503 5510 5516 5537 5536 5524 5523 5533 5542 5532 5528 5526 5522 5524 5528 5521 5511 5505 5501 5496 5492 5488 5485 5484 5481 5479 5477 5478 5477 5476 5474 5473 5473 5473 5473 5472 5471 5470 5470 5470 5471 5471
5510 5510 5507 5510 5514 5531 5525 5520 5527 5535 5528 5525 5523 5521 5518 5518 5513 5509 5505 5501 5496 5492 5488 5485 5482 5480 5477 5474 5473 5474 5472 5470 5468 5468 5467 5466 5465 5464 5463 5462 5462 5462 5463 5463
5505 5514 5519 5519 5530 5528 5519 5522 5522 5518 5520 5519 5518 5515 5512 5510 5507 5503 5500 5496 5492 5488 5484 5481 5478 5476 5473 5470 5469 5469 5467 5464 5462 5461 5460 5459 5457 5456 5454 5454 5454 5454 5454 5454
5502 5492 5499 5509 5523 5521 5517 5516 5514 5512 5512 5513 5511 5509 5506 5505 5502 5498 5495 5491 5487 5483 5479 5476 5473 5471 5469 5465 5463 5462 5460 5457 5456 5455 5453 5451 5449 5447 5446 5445 5445 5444 5444 5444
5508 5493 5497 5507 5518 5517 5518 5513 5511 5509 5507 5505 5504 5502 5501 5499 5496 5493 5491 5487 5483 5478 5474 5470 5468 5466 5464 5460 5458 5455 5452 5450 5449 5447 5445 5443 5441 5439 5438 5437 5436 5435 5434 5431
5499 5501 5508 5521 5520 5515 5518 5511 5505 5503 5502 5501 5499 5497 5495 5492 5490 5488 5485 5481 5477 5473 5469 5465 5463 5460 5457 5454 5451 5448 5445 5442 5441 5439 5437 5435 5433 5431 5430 5429 5428 5426 5423 5422